Location: Haliburton Scout Reserve
(45.0900°N, 78.3200°W)
Time: 02:57:58
(UTC-04:00)

NANOSAT C BR1 - Pass Details

Date: 23 May 2022
Orbit: 583 x 601 km, 98.0° (Epoch: 27 June)

Event Time Altitude Azimuth Distance (km) Brightness Sun altitude
Rises 04:16:52 0° 1° (N) 2,822 ? -11.8°
Reaches altitude 10° 04:19:19 10° 348° (NNW) 1,915 ? -11.5°
Maximum altitude 04:22:39 24° 294° (WNW) 1,228 ? -11.0°
Enters shadow 04:25:19 13° 246° (WSW) 1,690 ? -10.7°
